Location: Haliburton Scout Reserve
(45.0900°N, 78.3200°W)
Time: 12:57:57
(UTC-04:00)

IDEFIX/ARIANE 42P - Visible Passes

Search period start: 27 August 2016 00:00
Search period end: 06 September 2016 00:00
Orbit: 785 x 803 km, 98.2° (Epoch: 26 August)

Date Brightness Start Highest point End Pass type
(mag) Time Alt. Az. Time Alt. Az. Time Alt. Az.
28 Aug 5.9 20:39:48 10° WSW 20:41:26 11° W 20:43:05 10° WNW visible
01 Sep 5.6 20:24:37 10° SW 20:27:36 15° W 20:30:36 10° NW visible
04 Sep 6.0 20:41:12 10° W 20:42:29 11° W 20:43:45 10° WNW visible
05 Sep 5.4 20:10:02 10° SW 20:13:47 20° W 20:17:34 10° NW visible
